Regional Weather Roundup
Issued by NWS

Home | Current Version | Previous Version | Text Only | Print | Product List | Glossary Off
Versions: 1 2 3 4 5 6 7 8 9 10 11 12 13 14 15 16 17 18 19 20 21 22 23 24 25 26 27 28 29 30 31 32 33 34 35 36 37 38 39 40 41 42 43 44 45 46 47 48 49 50

000
ASUS43 KTOP 261608
RWRKS

WEATHER ROUNDUP FOR KANSAS
NATIONAL WEATHER SERVICE GOODLAND KS
1100 AM CDT TUE JUL 26 2016

NOTE:  "FAIR" INDICATES FEW OR NO CLOUDS BELOW 12,000 FEET WITH NO
SIGNIFICANT WEATHER AND/OR OBSTRUCTIONS TO VISIBILITY.

KSZ001>006-013>018-027>032-041>047-261700-
NORTHWEST KANSAS

CITY           SKY/WX    TMP DP  RH WIND       PRES   REMARKS
GOODLAND       MOSUNNY   76  66  71 S15       30.13S
HAYS           CLOUDY    75  63  64 S3        30.10S
HILL CITY      PTSUNNY   77  67  71 S8        30.10F
RUSSELL        MOSUNNY   79  68  69 CALM      30.07F
$$

KSZ061>065-074>080-084>089-261700-
SOUTHWEST KANSAS

CITY           SKY/WX    TMP DP  RH WIND       PRES   REMARKS
DODGE CITY     CLOUDY    75  69  81 CALM      30.11S
ELKHART          N/A     75  68  79 SE3         N/A
GARDEN CITY    MOSUNNY   77  69  76 SE7       30.10F
GREAT BEND     CLOUDY    75  64  69 CALM      30.08F
LIBERAL        MOSUNNY   81  70  69 E6        30.12S
PRATT          CLOUDY    73  67  81 CALM      30.09S
$$

KSZ066>073-081>083-090>101-261700-
SOUTHEAST KANSAS

CITY           SKY/WX    TMP DP  RH WIND       PRES   REMARKS
CHANUTE        PTSUNNY   83  73  72 NE8       30.04S
COFFEYVILLE    PTSUNNY   84  75  74 NE7       30.02F
HUTCHINSON     PTSUNNY   83  70  64 SE5       30.06S
MEDICINE LODGE   N/A     79  70  74 N7        30.06S
NEWTON         PTSUNNY   80  73  79 NE8       30.07F
PARSONS          N/A    N/A N/A N/A MISG      30.04F
WICHITA INTL   PTSUNNY   83  73  72 E12       30.04F
WICHITA JABRA  PTSUNNY   80  74  81 NE7       30.05F
WINFIELD       PTSUNNY   81  73  76 E10       30.05S
$$

KSZ007>012-019>026-033>040-048>060-102>105-261700-
NORTHEAST KANSAS

CITY           SKY/WX    TMP DP  RH WIND       PRES   REMARKS
CONCORDIA      SUNNY     79  68  69 SE7       30.08S
EMPORIA        MOSUNNY   81  70  69 NE10      30.06S
LAWRENCE       MOSUNNY   82  69  64 E8        30.07S
MANHATTAN      SUNNY     81  70  69 NE8       30.06F
MARYSVILLE     SUNNY     82  66  57 SE7       30.08S
OLATHE IND     MOSUNNY   82  67  60 E9        30.08S
OLATHE EXE     MOSUNNY   81  66  60 E10       30.07F
SALINA         PTSUNNY   83  70  64 VRB6      30.06F
TOPEKA FORBES  MOSUNNY   83  70  64 E9        30.07S
$$




USA.gov is the U.S. government's official web portal to all federal, state and local government web resources and services.